Location: Caracas
(10.5000°N, 66.9170°W)
Time: 22:11:49
(UTC-04:00)

ISS - Visible Passes

Search period start: 21 November 2017 00:00
Search period end: 01 December 2017 00:00
Orbit: 402 x 407 km, 51.6° (Epoch: 22 November)

Date Brightness Start Highest point End Pass type
(mag) Time Alt. Az. Time Alt. Az. Time Alt. Az.
21 Nov -2.7 05:46:46 10° NNW 05:49:50 41° NE 05:52:55 10° SE visible
21 Nov -3.9 19:01:20 10° SW 19:04:36 88° NW 19:06:00 31° NE visible
22 Nov -1.3 04:56:27 14° NNE 04:57:34 16° NE 04:59:41 10° E visible
23 Nov -3.3 05:39:40 19° WNW 05:41:40 41° SW 05:44:44 10° SSE visible
23 Nov -1.6 18:53:53 10° WSW 18:56:26 21° NW 18:59:01 10° N visible
24 Nov -2.7 04:50:11 44° ESE 04:50:11 44° ESE 04:52:38 10° SE visible
25 Nov -1.5 05:33:23 11° SW 05:33:23 11° SW 05:34:29 10° SW visible
26 Nov -0.9 04:43:48 11° S 04:43:48 11° S 04:44:00 10° S visible
